Location: Paris
(48.6709°N, 2.3750°E)
Time: 07:07:13
(UTC+02:00)

CUBESAT XI-V - Pass Details

Date: 01 July 2022
Orbit: 668 x 690 km, 98.1° (Epoch: 18 August)

Event Time Altitude Azimuth Distance (km) Brightness Sun altitude
Exits shadow 04:57:23 - 235° (SW) 2,229 ? -7.4°
Reaches altitude 10° 04:57:57 10° 241° (WSW) 2,107 ? -7.3°
Maximum altitude 05:00:17 14° 272° (W) 1,866 ? -7.1°
Drops below altitude 10° 05:02:38 10° 303° (WNW) 2,110 ? -6.8°
Sets 05:05:59 0° 329° (NNW) 3,027 ? -6.5°
